When you browse on this site, cookies collect data to enhance your experience and personalize the content and advertising you see.
Visit our Privacy Policy to learn more. By continuing to use the site, you agree to this use of cookies and data.
  • In Portugal
  • List of Countries
  • For 7 days
  • Water Temperature
  • Weather Map
  • Weather Widgets
  • user-avatar
    Login

    Hourly Weather Fort Pierre

    Today, 28 March, Saturday

    Time Temperature Precipitation Wind Pressure Humidity
    00:00 +7°C° 0 mm 2 mps 713 mmHg 85%
    01:00 +7°C° 0 mm 2 mps 713 mmHg 86%
    02:00 +7°C° 0 mm 3 mps 713 mmHg 86%
    03:00 +7°C° 0.1 mm 3 mps 713 mmHg 85%
    04:00 +6°C° 0.1 mm 4 mps 713 mmHg 85%
    05:00 +6°C° 0 mm 4 mps 714 mmHg 86%
    06:00 +6°C° 0 mm 4 mps 714 mmHg 81%
    07:00 +7°C° 0 mm 4 mps 714 mmHg 77%
    08:00 +7°C° 0 mm 4 mps 714 mmHg 72%
    09:00 +8°C° 0 mm 5 mps 714 mmHg 66%
    10:00 +9°C° 0 mm 5 mps 714 mmHg 61%
    11:00 +10°C° 0 mm 6 mps 715 mmHg 55%
    12:00 +11°C° 0 mm 7 mps 714 mmHg 50%
    13:00 +11°C° 0 mm 7 mps 713 mmHg 45%
    14:00 +12°C° 0 mm 7 mps 713 mmHg 40%
    15:00 +11°C° 0 mm 6 mps 713 mmHg 42%
    16:00 +12°C° 0 mm 5 mps 713 mmHg 44%
    17:00 +12°C° 0 mm 4 mps 713 mmHg 45%
    18:00 +10°C° 0 mm 3 mps 713 mmHg 51%
    19:00 +9°C° 0 mm 3 mps 714 mmHg 56%
    20:00 +7°C° 0 mm 2 mps 714 mmHg 61%
    21:00 +6°C° 0 mm 2 mps 714 mmHg 63%
    22:00 +7°C° 0 mm 1 mps 714 mmHg 65%
    23:00 +6°C° 0 mm 1 mps 714 mmHg 66%

    Tomorrow, 29 March, Sunday

    Time Temperature Precipitation Wind Pressure Humidity
    00:00 +6°C° 0 mm 1 mps 714 mmHg 65%
    01:00 +5°C° 0 mm 1 mps 714 mmHg 63%
    02:00 +4°C° 0 mm 2 mps 715 mmHg 62%
    03:00 +4°C° 0 mm 2 mps 715 mmHg 64%
    04:00 +4°C° 0 mm 2 mps 715 mmHg 66%
    05:00 +4°C° 0 mm 2 mps 716 mmHg 68%
    06:00 +5°C° 0 mm 2 mps 716 mmHg 65%
    07:00 +7°C° 0 mm 3 mps 717 mmHg 62%
    08:00 +8°C° 0 mm 3 mps 718 mmHg 58%
    09:00 +10°C° 0 mm 2 mps 718 mmHg 53%
    10:00 +12°C° 0 mm 2 mps 718 mmHg 47%
    11:00 +13°C° 0 mm 2 mps 719 mmHg 42%
    12:00 +14°C° 0 mm 1 mps 719 mmHg 40%
    13:00 +15°C° 0 mm 1 mps 719 mmHg 37%
    14:00 +15°C° 0 mm 1 mps 718 mmHg 35%
    15:00 +15°C° 0 mm 1 mps 719 mmHg 35%
    16:00 +15°C° 0 mm 1 mps 719 mmHg 36%
    17:00 +15°C° 0 mm 1 mps 719 mmHg 37%
    18:00 +13°C° 0 mm 2 mps 719 mmHg 42%
    19:00 +12°C° 0 mm 2 mps 720 mmHg 47%
    20:00 +10°C° 0 mm 3 mps 720 mmHg 52%
    21:00 +8°C° 0 mm 4 mps 720 mmHg 53%
    22:00 +7°C° 0 mm 4 mps 721 mmHg 54%
    23:00 +6°C° 0 mm 4 mps 721 mmHg 55%

    Day after tomorrow, 30 March, Monday

    Time Temperature Precipitation Wind Pressure Humidity
    00:00 +5°C° 0 mm 4 mps 721 mmHg 55%
    01:00 +5°C° 0 mm 4 mps 721 mmHg 55%
    02:00 +4°C° 0 mm 4 mps 721 mmHg 55%
    03:00 +4°C° 0 mm 4 mps 721 mmHg 57%
    04:00 +2°C° 0 mm 5 mps 721 mmHg 58%
    05:00 +2°C° 0 mm 5 mps 721 mmHg 59%
    06:00 +3°C° 0 mm 5 mps 721 mmHg 57%
    07:00 +4°C° 0 mm 6 mps 721 mmHg 55%
    08:00 +7°C° 0 mm 6 mps 721 mmHg 52%
    09:00 +8°C° 0 mm 6 mps 721 mmHg 50%
    10:00 +10°C° 0 mm 6 mps 721 mmHg 48%
    11:00 +13°C° 0 mm 6 mps 721 mmHg 46%
    12:00 +14°C° 0 mm 6 mps 720 mmHg 44%
    13:00 +15°C° 0 mm 6 mps 720 mmHg 42%
    14:00 +16°C° 0 mm 7 mps 720 mmHg 40%
    15:00 +16°C° 0 mm 7 mps 720 mmHg 43%
    16:00 +15°C° 0 mm 7 mps 720 mmHg 47%
    17:00 +14°C° 0 mm 7 mps 719 mmHg 50%
    18:00 +13°C° 0 mm 6 mps 720 mmHg 57%
    19:00 +10°C° 0 mm 5 mps 720 mmHg 64%
    20:00 +10°C° 0 mm 4 mps 720 mmHg 71%
    21:00 +8°C° 0 mm 4 mps 720 mmHg 74%
    22:00 +7°C° 0 mm 4 mps 720 mmHg 77%
    23:00 +7°C° 0 mm 5 mps 720 mmHg 80%

    31 March, Tuesday

    Time Temperature Precipitation Wind Pressure Humidity
    00:00 +7°C° 0 mm 5 mps 720 mmHg 80%
    01:00 +7°C° 0 mm 6 mps 719 mmHg 81%
    02:00 +7°C° 0 mm 6 mps 719 mmHg 81%
    03:00 +6°C° 0 mm 7 mps 718 mmHg 80%
    04:00 +6°C° 0 mm 7 mps 718 mmHg 80%
    05:00 +6°C° 0 mm 7 mps 718 mmHg 79%
    06:00 +6°C° 0 mm 8 mps 717 mmHg 77%
    07:00 +7°C° 0 mm 8 mps 717 mmHg 75%
    08:00 +7°C° 0 mm 8 mps 716 mmHg 72%
    09:00 +10°C° 0 mm 8 mps 715 mmHg 66%
    10:00 +12°C° 0 mm 8 mps 715 mmHg 60%
    11:00 +15°C° 0 mm 8 mps 714 mmHg 53%
    12:00 +17°C° 0 mm 8 mps 713 mmHg 44%
    13:00 +20°C° 0 mm 7 mps 712 mmHg 35%
    14:00 +21°C° 0 mm 7 mps 711 mmHg 26%
    15:00 +21°C° 0 mm 6 mps 711 mmHg 29%
    16:00 +20°C° 0 mm 5 mps 711 mmHg 31%
    17:00 +19°C° 0 mm 4 mps 711 mmHg 34%
    18:00 +15°C° 0.4 mm 5 mps 712 mmHg 44%
    19:00 +13°C° 0.4 mm 6 mps 713 mmHg 55%
    20:00 +9°C° 0.4 mm 7 mps 713 mmHg 65%
    21:00 +8°C° 0 mm 6 mps 714 mmHg 65%
    22:00 +7°C° 0 mm 5 mps 715 mmHg 65%
    23:00 +7°C° 0 mm 5 mps 715 mmHg 65%

    1 April, Wednesday

    Time Temperature Precipitation Wind Pressure Humidity
    00:00 +6°C° 0 mm 4 mps 715 mmHg 66%
    01:00 +5°C° 0 mm 4 mps 716 mmHg 68%
    02:00 +5°C° 0 mm 3 mps 716 mmHg 69%
    03:00 +4°C° 0 mm 3 mps 717 mmHg 70%
    04:00 +4°C° 0 mm 3 mps 717 mmHg 72%
    05:00 +3°C° 0 mm 3 mps 718 mmHg 73%
    06:00 +4°C° 0 mm 4 mps 718 mmHg 68%
    07:00 +4°C° 0 mm 4 mps 719 mmHg 63%
    08:00 +5°C° 0 mm 5 mps 719 mmHg 58%
    09:00 +5°C° 0 mm 5 mps 719 mmHg 51%
    10:00 +6°C° 0 mm 4 mps 719 mmHg 45%
    11:00 +8°C° 0 mm 3 mps 719 mmHg 39%
    12:00 +8°C° 0 mm 3 mps 719 mmHg 36%
    13:00 +9°C° 0 mm 2 mps 718 mmHg 34%
    14:00 +9°C° 0 mm 2 mps 718 mmHg 31%
    15:00 +9°C° 0 mm 2 mps 718 mmHg 32%
    16:00 +9°C° 0 mm 3 mps 718 mmHg 32%
    17:00 +9°C° 0 mm 3 mps 718 mmHg 32%
    18:00 +7°C° 0 mm 4 mps 718 mmHg 36%
    19:00 +6°C° 0 mm 4 mps 718 mmHg 40%
    20:00 +5°C° 0 mm 5 mps 718 mmHg 44%
    21:00 +5°C° 0 mm 5 mps 718 mmHg 46%
    22:00 +5°C° 0 mm 5 mps 719 mmHg 48%
    23:00 +3°C° 0 mm 5 mps 719 mmHg 50%

    2 April, Thursday

    Time Temperature Precipitation Wind Pressure Humidity
    00:00 +3°C° 0.1 mm 5 mps 719 mmHg 51%
    01:00 +2°C° 0.1 mm 5 mps 718 mmHg 52%
    02:00 +2°C° 0.1 mm 6 mps 718 mmHg 53%
    03:00 +2°C° 0.2 mm 6 mps 718 mmHg 57%
    04:00 +1°C° 0.2 mm 6 mps 718 mmHg 61%
    05:00 +1°C° 0.2 mm 6 mps 719 mmHg 66%
    06:00 -1°C° 0.3 mm 7 mps 719 mmHg 70%
    07:00 -1°C° 0.3 mm 7 mps 719 mmHg 74%
    08:00 -1°C° 0.3 mm 8 mps 719 mmHg 79%
    09:00 -1°C° 0.8 mm 7 mps 719 mmHg 81%
    10:00 -1°C° 0.8 mm 7 mps 719 mmHg 83%
    11:00 -1°C° 0.8 mm 7 mps 719 mmHg 85%
    12:00 0°C° 0.4 mm 7 mps 720 mmHg 82%
    13:00 +1°C° 0.4 mm 6 mps 720 mmHg 79%
    14:00 +1°C° 0.4 mm 5 mps 720 mmHg 76%
    15:00 +1°C° 0.2 mm 6 mps 721 mmHg 79%
    16:00 -1°C° 0.2 mm 6 mps 722 mmHg 82%
    17:00 -1°C° 0.2 mm 6 mps 723 mmHg 84%
    18:00 0°C° 0 mm 5 mps 724 mmHg 83%
    19:00 0°C° 0 mm 5 mps 724 mmHg 82%
    20:00 -1°C° 0 mm 4 mps 725 mmHg 82%
    21:00 0°C° 0 mm 3 mps 726 mmHg 80%
    22:00 0°C° 0 mm 3 mps 726 mmHg 79%
    23:00 -1°C° 0 mm 3 mps 726 mmHg 78%
    Show more